This is the latest recevied weather packets stored in our database for station/object K2CAT. If no packets are shown the sender has not sent any weather packets the latest 10 day(s).
| Time | Temp. | Humidity | Pressure | Rain* | Wind** | Luminosity | Snow |
|---|---|---|---|---|---|---|---|
| 1777765808 | 12.22° C | 38% | 1011.4 hPa | 0 mm | - | 5 W/m² | - |
| 1777765503 | 12.22° C | 38% | 1011.2 hPa | 0 mm | - | 6 W/m² | - |
| 1777765201 | 12.22° C | 38% | 1011.4 hPa | 0 mm | - | 8 W/m² | - |
| 1777764901 | 12.22° C | 39% | 1011.3 hPa | 0 mm | - | 11 W/m² | - |
| 1777764598 | 12.22° C | 38% | 1011.3 hPa | 0 mm | - | 14 W/m² | - |
| 1777764295 | 12.78° C | 42% | 1011.1 hPa | 0 mm | - | 16 W/m² | - |
| 1777763992 | 12.78° C | 38% | 1011.1 hPa | 0 mm | - | 18 W/m² | - |
| 1777763689 | 12.78° C | 38% | 1011.3 hPa | 0 mm | - | 19 W/m² | - |
| 1777763387 | 12.78° C | 38% | 1011.2 hPa | 0 mm | - | 20 W/m² | - |
| 1777763085 | 12.78° C | 38% | 1011.4 hPa | 0 mm | - | 23 W/m² | - |
| 1777762783 | 12.78° C | 41% | 1011.2 hPa | 0 mm | - | 26 W/m² | - |
| 1777762478 | 12.78° C | 39% | 1011.1 hPa | 0 mm | - | 24 W/m² | - |
| 1777762176 | 12.78° C | 40% | 1011 hPa | 0 mm | - | 23 W/m² | - |
| 1777761872 | 12.78° C | 39% | 1011.2 hPa | 0 mm | - | 23 W/m² | - |
| 1777761568 | 12.78° C | 42% | 1011.1 hPa | 0 mm | - | 27 W/m² | - |
| 1777761267 | 12.78° C | 40% | 1010.9 hPa | 0 mm | - | 30 W/m² | - |
| 1777760965 | 12.78° C | 39% | 1010.9 hPa | 0 mm | - | 30 W/m² | - |
| 1777760662 | 12.78° C | 39% | 1010.9 hPa | 0 mm | - | 28 W/m² | - |
| 1777760362 | 12.78° C | 40% | 1011 hPa | 0 mm | - | 28 W/m² | - |
| 1777760059 | 12.78° C | 40% | 1010.7 hPa | 0 mm | - | 30 W/m² | - |
| 1777759756 | 12.78° C | 39% | 1010.7 hPa | 0 mm | - | 35 W/m² | - |
| 1777759451 | 13.33° C | 39% | 1010.9 hPa | 0 mm | - | 43 W/m² | - |
| 1777759149 | 13.33° C | 40% | 1010.8 hPa | 0 mm | - | 51 W/m² | - |
| 1777758846 | 13.33° C | 40% | 1010.6 hPa | 0 mm | - | 55 W/m² | - |
| 1777758542 | 13.89° C | 36% | 1010.5 hPa | 0 mm | - | 52 W/m² | - |
* Rain latest hour (hover to see other rain measurements)
** Current wind speed in m/s (hover to see current wind gust speed)